CAPE
79 79 39 94 85 39 30 7 51 102 202 282 270 329 298 263 226 203 200 178 161 163 327 322 273 143 21 0 0 6 25 32 42 70 43 19 0 0 0 0 0 0 0
89 31 2 0 3 23 16 41 32 31 59 205 336 361 331 373 493 424 286 212 228 189 198 187 171 144 64 8 18 57 127 146 140 56 28 2 0 0 0 0 0 0 0
59 3 0 0 62 13 4 10 10 24 0 68 256 349 297 364 429 420 439 413 342 259 175 108 65 62 54 46 85 151 137 102 145 152 52 31 1 0 0 0 0 0 0
0 5 39 37 0 0 10 38 25 23 18 27 163 137 122 119 169 199 243 148 138 112 54 54 35 21 10 83 122 27 57 58 36 59 38 92 83 0 0 0 0 0 0
0 0 3 29 103 130 135 126 39 7 47 113 143 80 35 114 149 65 47 17 37 32 43 42 30 0 0 0 1 1 0 0 2 1 25 31 0 0 0 0 0 0 0
0 0 0 0 0 13 165 201 155 74 162 165 138 151 125 135 70 129 51 14 7 1 0 0 0 0 0 0 0 0 0 0 0 0 0 0 0 0 0 0 0 0 2
0 0 0 0 0 0 0 0 84 271 290 293 325 325 230 154 136 139 191 43 0 0 0 1 0 0 0 0 0 0 0 0 0 0 0 0 0 0 0 0 0 0 1
0 0 0 0 0 0 0 0 0 0 0 85 253 300 360 252 323 241 137 0 1 1 1 2 2 0 0 0 0 0 0 0 0 0 0 0 0 0 0 0 0 0 0
0 0 0 0 0 0 0 0 0 0 0 0 34 225 177 179 141 145 54 3 2 1 2 2 1 0 0 0 0 0 0 0 0 0 0 0 0 3 6 3 2 2 0
0 0 0 0 0 0 0 0 0 0 0 0 0 7 30 69 70 31 6 2 4 2 3 2 2 0 0 0 0 0 0 0 0 0 0 0 0 0 1 3 3 1 5
0 0 0 0 0 0 0 0 0 0 0 0 0 0 0 0 0 0 2 3 2 2 0 0 0 0 0 0 0 0 0 0 0 0 0 0 0 0 0 1 1 0 3
0 0 0 0 0 0 0 0 0 0 0 0 0 0 0 0 0 0 2 1 2 1 0 0 0 0 0 0 0 0 0 0 0 0 0 0 0 0 0 0 0 0 0
0 0 0 0 0 0 0 0 0 0 0 0 0 0 0 0 0 0 0 0 0 0 0 0 0 0 0 0 0 0 0 0 0 0 0 0 0 0 0 0 0 1 0
0 0 0 0 0 0 0 0 0 0 0 0 0 0 0 0 0 0 0 0 0 0 0 0 0 0 0 0 0 0 0 0 0 0 0 0 0 0 1 0 0 0 0
0 0 0 0 0 0 0 0 0 0 0 0 0 0 0 0 0 0 0 0 0 0 0 0 0 0 0 0 0 0 0 0 0 0 0 0 0 0 0 0 1 0 0
0 0 0 0 0 0 0 0 0 0 0 0 0 0 0 0 0 0 0 0 0 0 0 0 0 0 0 0 0 0 0 0 0 0 0 0 0 0 0 0 0 0 0
0 0 0 0 0 0 0 0 0 0 0 0 0 0 0 0 0 0 0 0 0 0 0 0 0 0 0 0 0 0 0 0 0 0 0 0 0 0 0 0 0 0 0
0 0 0 0 0 0 0 0 0 0 0 0 0 0 0 0 0 0 0 0 0 0 0 0 0 0 0 0 0 0 0 0 0 0 0 0 0 0 0 0 0 0 0
0 0 0 0 0 0 0 0 0 0 0 0 0 0 0 0 0 0 0 0 0 0 0 0 0 0 0 0 0 1 1 0 0 0 0 0 0 0 0 0 0 0 0
0 0 0 0 0 0 0 0 0 0 0 0 0 0 0 0 0 0 0 0 0 0 0 0 0 0 0 0 1 0 0 0 0 0 0 0 0 0 0 0 0 0 0
0 0 0 0 0 0 0 0 0 0 0 0 0 0 0 0 0 0 0 0 0 0 0 0 0 0 0 0 1 0 0 0 0 0 0 0 0 0 0 0 0 0 0
1 2 1 4 2 2 3 2 2 3 0 0 0 0 0 0 0 0 0 0 0 0 0 0 0 0 0 0 1 2 0 0 0 0 0 0 0 0 0 0 0 0 0
1 0 0 4 5 4 3 14 8 6 2 0 0 0 0 1 1 0 1 0 0 0 0 0 0 2 0 0 0 1 2 0 0 0 0 0 0 0 0 0 0 0 0
1 4 3 3 1 3 4 3 1 3 5 1 0 0 1 2 1 1 1 0 0 1 1 0 1 2 1 0 1 0 3 0 0 0 0 0 0 0 0 0 0 0 0
0 0 2 4 2 2 2 2 2 2 2 0 1 1 2 2 2 1 1 0 0 0 0 0 0 0 1 0 0 1 1 0 0 0 0 0 0 0 0 0 0 0 0
0 1 3 2 3 2 1 1 1 1 0 2 2 3 2 2 2 2 2 0 0 0 0 0 0 0 0 0 0 0 0 0 1 0 0 0 0 0 0 0 0 0 0
CIN
-6 -13 -59 -2 -7 -23 -65 -63 -29 -18 -14 -63 -62 -35 -50 -54 -99 -101 -87 -75 -62 -39 -7 -7 -1 -5 -57 0 0 -56 -17 -14 -24 -4 -12 -23 -1 0 0 0 0 0 0
-10 -31 -84 0 -2 -24 -18 -21 -31 -73 -87 -14 -29 -28 -48 -26 -33 -38 -57 -56 -38 -49 -35 -23 -25 -17 -9 -37 -20 -5 -6 -8 -2 -1 -7 -1 0 0 0 0 0 0 0
-13 -53 0 0 -20 -11 -12 -41 -45 -60 -10 -108 -18 -20 -19 -10 -12 -30 -30 -17 -35 -45 -67 -64 -66 -43 -15 -8 -6 -10 -6 -2 -4 -6 -2 -22 -1 0 0 0 0 0 0
-2 -32 -8 -2 0 0 -73 -72 -62 -60 -96 -104 -35 -13 -6 -13 -20 -62 -87 -102 -78 -79 -106 -70 -63 -80 -51 -1 -1 -48 -22 -17 -8 -18 -34 -10 -1 0 0 -1 0 0 0
0 0 -70 -33 -6 -15 -52 -72 -56 -49 -64 -35 -15 -22 -40 -55 -49 -39 -110 -185 -142 -124 -132 -106 -57 0 0 0 0 0 0 0 -20 -29 -15 -31 0 0 0 0 0 0 0
0 0 0 0 0 -89 -50 -49 -32 -84 -33 -13 -24 -30 -28 -21 -11 -29 -70 -141 -169 -137 0 0 0 0 0 0 0 0 0 0 0 0 0 0 0 0 0 0 0 0 -1
0 0 0 0 0 0 0 0 -139 -38 -43 -40 -37 -46 -51 -21 -32 -24 -38 -122 0 0 0 0 0 0 0 0 0 0 0 0 0 0 0 0 0 0 0 0 0 0 -1
0 0 0 0 0 0 0 0 0 0 -24 -121 -87 -80 -69 -83 -70 -82 -125 -22 0 0 0 0 0 0 0 0 0 0 0 0 0 0 0 0 0 0 0 0 0 0 0
0 0 0 0 0 0 0 0 0 0 0 0 -160 -103 -105 -115 -123 -110 -163 0 0 0 0 0 0 0 0 0 0 0 0 0 0 0 0 0 0 0 0 0 -1 0 0
0 0 0 0 0 0 0 0 0 0 0 0 0 -220 -197 -165 -169 -209 -120 0 0 0 0 0 0 0 0 0 0 0 0 0 0 0 0 0 0 0 0 0 0 0 0
0 0 0 0 0 0 0 0 0 0 0 0 0 0 0 0 0 0 0 0 0 0 0 0 0 0 0 0 0 0 0 0 0 0 0 0 0 0 0 0 0 0 0
0 0 0 0 0 0 0 0 0 0 0 0 0 0 0 0 0 0 0 0 0 0 0 0 0 0 0 0 0 0 0 0 0 0 0 0 0 0 0 0 0 0 0
0 0 0 0 0 0 0 0 0 0 0 0 0 0 0 0 0 0 0 0 0 0 0 0 0 0 0 0 0 0 0 0 0 0 0 0 0 0 0 0 -1 0 0
0 0 0 0 0 0 0 0 0 0 0 0 0 0 0 0 0 0 0 0 0 0 0 0 0 0 0 0 0 0 0 0 0 0 0 0 0 0 0 0 0 0 0
0 0 0 0 0 0 0 0 0 0 0 0 0 0 0 0 0 0 0 0 0 0 0 0 0 0 0 0 0 0 0 0 0 0 0 0 0 0 0 0 0 0 0
0 0 0 0 0 0 0 0 0 0 0 0 0 0 0 0 0 0 0 0 0 0 0 0 0 0 0 0 0 0 0 0 0 0 0 0 0 0 0 0 0 0 0
0 0 0 0 0 0 0 0 0 0 0 0 0 0 0 0 0 0 0 0 0 0 0 0 0 0 0 0 0 0 0 0 0 0 0 0 0 0 0 0 0 0 0
0 0 0 0 0 0 0 0 0 0 0 0 0 0 0 0 0 0 0 0 0 0 0 0 0 0 0 0 0 0 0 0 0 0 0 0 0 0 0 0 0 0 0
0 0 0 0 0 0 0 0 0 0 0 0 0 0 0 0 0 0 0 0 0 0 0 0 0 0 0 0 0 0 0 0 0 0 0 0 0 0 0 0 0 0 0
0 0 0 0 0 0 0 0 0 0 0 0 0 0 0 0 0 0 0 0 0 0 0 0 0 0 0 0 0 0 0 0 0 0 0 0 0 0 0 0 0 0 0
0 0 0 0 0 0 -1 0 0 0 0 0 0 0 0 0 0 0 0 0 0 0 0 0 0 0 0 0 0 0 0 0 0 0 0 0 0 0 0 0 0 0 0
-1 -1 -1 -1 -1 -1 -1 -1 0 -1 0 0 0 0 0 0 0 0 0 0 0 0 0 0 0 0 0 0 0 0 0 0 0 0 0 0 0 0 0 0 0 0 0
0 0 -2 0 0 0 -1 0 0 -1 -1 -1 0 0 0 0 0 0 0 0 0 0 0 0 0 0 0 0 0 0 0 0 0 0 0 0 0 0 0 0 0 0 0
0 0 0 0 0 0 0 0 -1 -1 -1 0 0 0 0 0 0 0 0 0 0 0 0 0 0 0 0 0 0 0 0 0 0 0 0 0 0 0 0 0 0 0 0
0 0 0 0 0 0 0 0 0 0 0 0 0 0 0 0 0 0 0 0 0 0 0 0 0 0 0 0 0 0 0 0 0 0 0 0 0 0 0 0 0 0 0
0 -1 0 0 0 0 0 0 0 0 0 0 0 0 0 0 0 0 0 0 0 0 0 0 0 0 0 0 0 0 0 0 0 0 0 0 0 0 0 0 0 0 0
Wind_Speed
42 24 20 24 12 16 17 24 26 28 23 21 15 16 19 19 22 21 20 21 22 22 21 21 19 15 16 15 13 13 13 14 16 18 18 18 18 20 21 21 21 21 22
31 24 24 20 30 20 19 21 27 30 26 20 16 22 21 22 24 23 22 24 23 22 25 25 22 20 19 18 16 14 13 15 14 18 19 23 21 19 18 19 20 21 22
27 20 27 23 23 27 29 29 27 32 35 27 26 24 25 24 24 22 24 23 24 25 26 26 26 25 22 21 18 15 15 16 15 17 20 23 23 23 17 19 21 21 21
23 21 26 24 21 20 25 42 30 34 37 32 32 36 37 32 33 31 26 23 25 26 23 24 28 25 26 26 18 20 20 19 20 18 21 23 21 22 24 18 20 21 21
18 17 15 19 15 6 17 39 38 30 34 39 41 39 40 39 33 35 31 32 28 27 26 25 23 21 19 20 22 14 17 20 21 24 23 20 21 20 22 27 22 22 22
15 12 8 9 12 18 5 22 36 37 39 19 25 39 36 41 40 32 31 22 26 23 22 19 18 16 16 19 22 18 16 17 22 22 20 21 21 22 22 24 25 24 23
15 9 7 9 10 9 11 10 9 17 13 11 9 12 14 17 13 12 31 19 21 21 16 15 11 13 11 8 9 7 10 13 14 11 16 17 16 19 21 25 26 27 26
14 12 12 14 13 14 14 13 13 12 10 10 12 14 14 15 10 10 9 10 9 9 8 7 6 5 4 2 3 7 8 5 7 10 14 15 16 16 17 18 24 29 29
15 16 16 18 18 20 21 20 18 20 20 19 17 16 16 15 16 15 14 15 13 10 10 10 9 9 8 9 9 8 9 14 16 16 17 16 18 20 20 21 22 26 32
11 14 16 18 18 19 19 20 22 24 23 20 21 21 20 20 20 18 17 16 15 12 11 13 13 12 11 11 11 12 11 13 15 16 17 18 20 20 21 22 23 24 27
10 12 14 16 18 19 19 20 19 20 21 21 20 20 19 18 18 19 19 18 15 14 13 13 13 12 12 11 12 13 12 12 13 15 17 19 19 20 21 22 23 23 23
16 17 18 18 19 20 20 19 17 17 17 18 19 20 20 20 18 18 17 15 14 13 12 13 12 11 11 11 12 14 16 16 17 17 19 19 18 18 18 20 21 21 20
19 19 21 21 22 22 21 21 20 20 18 18 18 18 19 20 20 18 17 15 14 13 12 12 11 10 10 12 13 12 13 14 16 16 16 17 18 19 19 20 20 20 21
21 21 22 22 23 24 24 24 24 23 22 22 21 21 20 20 19 18 18 16 15 14 12 11 11 11 11 11 10 12 14 15 13 12 14 17 17 17 18 19 21 21 21
26 27 27 26 26 27 27 26 26 25 24 24 24 23 23 22 20 19 18 16 15 14 13 12 11 11 11 11 10 12 12 11 10 11 13 14 16 16 17 18 19 19 19
29 30 32 33 32 30 30 31 31 30 29 30 29 28 27 26 23 20 18 17 16 14 13 12 13 12 13 13 12 12 12 12 12 13 14 15 16 16 17 17 18 17 16
31 32 34 34 34 35 36 36 35 33 33 34 33 32 30 29 26 25 23 21 19 18 17 16 16 16 15 12 11 12 13 14 14 13 14 16 16 16 16 17 16 17 16
36 37 38 39 39 39 38 39 39 39 38 37 36 34 33 32 29 27 25 24 22 20 20 19 19 17 16 12 12 12 14 15 15 16 16 16 16 15 15 15 16 16 15
42 44 44 45 45 44 42 41 39 38 39 39 39 37 34 33 31 30 27 25 24 24 23 22 20 19 17 14 12 13 15 17 17 17 16 15 15 14 14 14 14 13 14
38 41 46 47 48 48 47 47 46 43 41 37 37 37 35 33 31 30 28 26 25 25 23 23 21 19 18 14 13 13 16 16 18 17 16 15 14 12 10 11 11 12 12
41 40 43 47 49 48 49 53 51 49 43 38 36 35 34 35 32 29 28 26 25 23 22 22 21 19 18 15 13 13 16 17 17 17 15 14 11 11 9 12 12 12 10
35 33 38 48 49 49 49 50 51 49 46 42 38 36 35 32 31 29 28 26 25 24 22 22 22 20 18 17 15 13 15 15 16 15 14 12 10 10 11 11 12 10 8
31 31 35 46 47 45 42 42 42 45 45 43 41 38 35 31 28 27 26 25 24 23 24 23 22 21 19 17 15 13 11 12 13 14 12 10 9 9 10 10 10 8 9
30 34 41 48 41 42 43 40 47 45 41 41 41 39 34 29 25 24 23 25 24 24 22 21 20 19 18 16 13 12 11 11 12 12 11 9 9 9 10 8 9 10 10
28 36 44 44 42 47 41 39 29 43 38 42 41 37 32 26 24 24 23 24 25 23 22 21 19 18 17 15 13 12 11 10 10 11 11 10 9 10 10 9 10 9 9
31 35 43 42 39 45 45 30 12 36 36 39 38 35 30 23 22 23 23 23 24 23 21 19 18 18 18 15 13 12 12 10 8 12 12 11 10 10 8 9 10 10 9
Wind_Direction
222 233 240 243 218 217 220 214 228 236 235 236 241 248 246 250 248 252 256 260 261 264 272 277 285 289 289 289 289 291 293 296 303 308 311 317 320 321 322 326 331 336 338
233 235 236 267 241 226 227 228 236 239 240 250 252 255 254 257 256 256 260 263 266 272 273 276 281 285 288 284 283 281 286 292 299 304 311 311 316 322 330 331 330 334 336
237 247 241 247 234 233 232 235 244 244 245 253 254 255 261 261 257 260 261 268 271 272 277 281 280 284 287 285 279 275 280 290 299 303 306 307 309 314 325 326 326 329 332
246 253 245 237 244 230 235 218 244 232 225 236 251 249 252 263 260 258 265 273 277 277 284 288 285 285 287 286 279 283 283 287 292 304 303 307 315 313 315 324 326 326 328
240 249 259 259 265 236 246 217 213 236 233 240 238 247 243 244 263 261 265 269 277 283 284 286 289 288 295 298 301 281 286 293 297 298 302 313 316 315 309 309 315 321 321
248 262 283 288 283 267 197 177 207 242 225 192 194 227 213 233 232 260 260 278 275 286 289 294 293 289 288 294 297 292 296 311 302 304 310 307 308 310 310 311 312 315 317
252 277 305 306 311 309 292 292 290 276 273 265 239 217 221 216 275 263 270 275 282 286 294 295 296 295 303 308 314 309 312 305 314 315 313 322 310 308 310 308 309 311 312
272 288 303 308 313 308 303 299 296 294 288 281 283 283 282 287 283 283 277 282 281 287 290 297 304 309 325 359 353 326 321 306 316 321 320 323 319 316 312 310 310 308 309
285 289 297 305 307 297 292 289 289 285 283 284 285 286 286 285 286 289 289 288 290 291 282 289 293 298 306 308 310 314 313 309 311 313 315 316 316 313 312 310 309 307 310
307 301 304 308 314 313 305 297 288 283 284 285 284 284 286 286 286 286 284 284 285 280 274 279 284 291 302 306 313 315 317 314 315 316 314 312 312 311 310 311 312 310 307
326 322 325 327 325 320 317 307 299 291 287 287 287 286 286 287 287 285 282 280 280 276 270 273 282 291 300 310 315 316 319 323 322 318 313 312 314 312 313 312 313 313 312
324 322 324 324 325 327 325 320 315 305 296 292 290 287 286 287 288 287 284 281 277 272 268 274 280 288 299 309 312 314 315 314 313 313 311 311 315 315 316 316 316 317 318
337 335 331 329 322 322 323 321 316 308 305 302 297 294 290 286 285 286 284 280 274 270 270 271 276 286 299 309 315 320 323 325 326 324 321 317 314 315 317 318 319 319 317
337 338 333 335 329 324 319 317 316 313 309 303 298 295 291 288 286 284 282 277 272 268 266 268 277 286 297 306 313 320 324 328 333 332 329 322 319 319 319 319 318 319 319
330 327 325 326 325 320 318 316 313 310 306 299 295 292 290 288 286 283 280 277 272 267 266 269 276 287 294 298 308 316 323 331 337 338 333 329 327 327 325 324 324 325 323
325 324 321 319 319 319 317 312 307 304 301 296 292 289 286 283 281 279 274 272 267 262 261 265 275 280 288 293 301 311 318 322 327 327 328 327 327 328 328 329 330 331 329
326 324 321 319 318 316 311 306 303 301 297 292 289 286 283 280 278 276 272 267 265 265 264 266 273 279 285 286 294 304 314 317 319 320 320 320 323 326 331 335 338 339 338
316 315 314 312 312 311 309 305 302 298 295 293 290 286 281 277 274 271 269 266 263 260 261 265 269 274 280 279 287 298 309 313 316 315 317 317 320 324 329 333 336 340 344
311 307 308 308 307 306 306 305 301 298 294 291 289 286 281 275 271 267 265 264 262 261 261 263 264 270 277 273 281 293 302 306 312 316 316 316 319 322 326 330 334 340 345
321 319 310 307 305 305 303 300 297 295 292 291 288 286 282 276 269 265 263 263 263 262 262 264 265 267 272 268 276 289 299 303 310 315 315 315 318 322 326 329 332 332 341
322 322 318 313 308 307 304 296 294 292 293 291 288 286 281 275 269 264 260 260 260 261 260 260 264 266 269 270 272 282 296 304 308 311 310 311 312 317 319 323 325 327 339
331 329 325 316 314 312 308 302 296 293 291 286 284 283 280 276 269 262 256 256 257 256 255 256 260 264 268 271 270 278 292 303 308 309 311 310 306 309 313 316 320 328 338
335 333 328 322 321 319 318 313 304 299 291 283 277 276 276 274 266 257 252 250 250 250 251 251 255 259 264 270 273 275 282 298 307 312 311 311 308 308 310 313 320 322 325
339 337 333 326 329 327 322 316 302 293 293 283 271 269 271 271 262 254 248 245 244 244 244 245 250 255 260 265 269 274 280 293 303 311 312 309 308 306 310 313 311 310 315
342 340 335 333 333 326 330 323 314 286 288 274 261 265 269 269 260 253 244 242 244 238 237 241 245 250 258 258 263 272 277 285 296 308 308 303 300 297 298 300 300 307 309
345 344 338 338 338 332 337 336 313 287 285 258 254 262 268 270 260 251 248 250 247 244 247 249 251 260 269 264 261 269 276 282 288 299 295 292 292 290 289 290 292 296 302